Location: Bauerbach
(50.4985°N, 10.3912°E)
Time: 01:33:33
(UTC+00:00)

Cosmos 44 - Pass Details

Date: 13 January 2026
Orbit: 571 x 779 km, 65.1° (Epoch: 6 February)

Event Time Altitude Azimuth Distance (km) Brightness Sun altitude
Exits shadow 06:10:07 11° 314° (NW) 2,271 5.4 -9.9°
Maximum altitude 06:15:15 58° 237° (WSW) 902 3.7 -9.1°
Drops below altitude 10° 06:20:31 10° 159° (SSE) 2,326 6.7 -8.4°
Sets 06:22:57 0° 155° (SSE) 3,244 7.6 -8.0°
